Flag for U.S.A. Weather past 2 weeks in Greensboro, North Carolina, U.S.A.

Now
41 °F

Passing clouds.


Feels Like: 32 °F
Forecast: 26 / 44 °F
Wind: 21 mph from Northwest

Location: Piedmont Triad International Airport

Current Time: Jan 30, 2015 at 7:41:36 AM

Latest Report: Jan 30, 2015 at 6:54 AM


Visibility: 10 mi

Pressure: 30.04 "Hg

Humidity: 49%

Dew point: 23 °F

Location of GreensboroLocation

Historic Weather in Greensboro — Graph

°F

Greensboro temperature yesterday

Maximum temperature yesterday: 47 °F (at 12:54 PM)
Minimum temperature yesterday: 25 °F (at 6:54 AM)
Average temperature yesterday: 37 °F

Past Weeks' High & Low Weather Summary

 TemperatureHumidityPressure
High65 °F (Jan 20, 1:54 PM)100% (Jan 15, 7:54 AM)30.35 "Hg (Jan 15, 7:54 AM)
Low23 °F (Jan 28, 3:54 AM)22% (Jan 20, 3:54 PM)29.56 "Hg (Jan 24, 5:54 AM)
Average41 °F61%30.01 "Hg
* Reported Jan 15 5:54 AM — Jan 30 5:54 AM, Greensboro, Weather by CustomWeather, © 2014

Note: Actual official high and low records may vary slightly from our data, if they occured in-between our weather recording intervals... More about our weather records

Advertising

Greensboro weather history for previous 24 hours

 ConditionsComfort  
Time TempWeatherWind HumidityBarometerVisibility
5:54 AM
Jan 30
41 °FPassing clouds.16 mph58%30.01 "Hg10 mi
4:54 AM42 °FClear.17 mph57%29.98 "Hg10 mi
3:54 AM42 °FPassing clouds.9 mph57%29.96 "Hg10 mi
2:54 AM42 °FMostly cloudy.8 mph53%29.97 "Hg10 mi
1:54 AM42 °FOvercast.6 mph51%29.97 "Hg10 mi
12:54 AM43 °FMostly cloudy.9 mph49%29.97 "Hg10 mi
11:54 PM
Jan 29
43 °FOvercast.10 mph49%29.99 "Hg10 mi
10:54 PM42 °FOvercast.8 mph51%30.01 "Hg10 mi
9:54 PM39 °FOvercast.12 mph60%30.03 "Hg10 mi
8:54 PM38 °FPassing clouds.6 mph60%30.07 "Hg10 mi
7:54 PM38 °FPassing clouds.5 mph60%30.08 "Hg10 mi
6:54 PM41 °FPassing clouds.No wind53%30.09 "Hg10 mi
5:54 PM43 °FPassing clouds.7 mph49%30.08 "Hg10 mi
4:54 PM45 °FScattered clouds.12 mph44%30.08 "Hg10 mi
3:54 PM47 °FBroken clouds.12 mph50%30.10 "Hg10 mi
2:54 PM43 °FLight rain. Mostly cloudy.9 mph56%30.12 "Hg9 mi
1:54 PM46 °FCloudy.13 mph35%30.15 "Hg10 mi
12:54 PM47 °FMostly cloudy.12 mph36%30.19 "Hg10 mi
11:54 AM45 °FMore clouds than sun.14 mph38%30.24 "Hg10 mi
10:54 AM43 °FOvercast.9 mph42%30.28 "Hg10 mi
9:54 AM39 °FPartly sunny.8 mph48%30.30 "Hg10 mi
8:54 AM33 °FPartly sunny.5 mph56%30.31 "Hg10 mi
7:54 AM27 °FPartly sunny.5 mph69%30.32 "Hg10 mi
Weather by CustomWeather, © 2014

See weather overviewHow to use our weather pages